« Back
NWS Peachtree City, Ga » Text Product » GA Regional Weather Roundup


Printer-friendly Version
Current Version              Previous Versions:   1  2  3  4  5  6  7  8  9  

Regional Weather Roundup

234
ASUS42 KFFC 240703
RWRGA
WEATHER ROUNDUP FOR GEORGIA
NATIONAL WEATHER SERVICE PEACHTREE CITY GA
300 AM EDT SUN MAY 24 2015

NOTE: "FAIR" INDICATES FEW OR NO CLOUDS BELOW 12,000 FEET WITH NO
SIGNIFICANT WEATHER AND/OR OBSTRUCTIONS TO VISIBILITY.

* = USE WITH CAUTION. THE STATIONS MARKED WITH AN ASTERISK MAY NOT
REPORT WEATHER SUCH AS PRECIPITATION, FOG, OR THUNDER AND ARE NOT
QUALITY CONTROLLED BY NWS.

THE REMARK "TC" DENOTES TEMPERATURE READING IN DEGREES CELSIUS.

GAZ001>058-240800-
NORTH GEORGIA

CITY           SKY/WX    TMP DP  RH WIND       PRES   REMARKS
ATLANTA        PTCLDY    66  52  60 SE8       30.30S
ATHENS         CLEAR     62  54  74 CALM      30.33S
CHAMBLEE       CLEAR     64  50  60 SE5       30.31S
PEACHTREE CITY CLEAR     56  53  90 CALM      30.30S
ROME           CLEAR     57  52  83 CALM      30.26F
WEST ATLANTA   CLEAR     68  52  56 SE8       30.29S
GAINESVILLE    CLEAR     63  47  55 E5        30.36R
CARTERSVILLE   CLEAR     61  49  64 VRB3      30.29F


CITY           SKY/WX    TMP DP  RH WIND       PRES   REMARKS
DALTON*        CLEAR     57  54  88 CALM      30.27F
BLAIRSVILLE*     N/A     50  42  73 CALM      30.35S
$$

GAZ059>098-102>109-240800-
CENTRAL GEORGIA

CITY           SKY/WX    TMP DP  RH WIND       PRES   REMARKS
AUGUSTA-BUSH   CLEAR     59  56  89 CALM      30.32S
AUGUSTA-DANIEL CLEAR     67  58  72 E5        30.33S
COLUMBUS       CLEAR     67  56  67 E7        30.25F
MACON          PTCLDY    61  59  93 E3        30.29S


CITY           SKY/WX    TMP DP  RH WIND       PRES   REMARKS
LAGRANGE*      CLEAR     61  58  89 CALM      30.26F
SYLVANIA*      PTCLDY    65  63  91 CALM      30.31S
MILLEDGEVILLE* CLEAR     66  63  88 CALM      30.31R
$$

GAZ099>101-110>166-240800-
SOUTH GEORGIA

CITY           SKY/WX    TMP DP  RH WIND       PRES   REMARKS
SAVANNAH       PTCLDY    71  61  70 E6        30.30S
VALDOSTA       CLEAR     69  67  93 E5        30.25S
ALMA           CLOUDY    67  63  87 E3        30.27S
ALBANY         MOCLDY    72  65  78 E7        30.28R
BRUNSWICK      CLOUDY    75  63  64 E12       30.28S


CITY           SKY/WX    TMP DP  RH WIND       PRES   REMARKS
BAINBRIDGE*    CLEAR     73  68  83 E7        30.23S
MOULTRIE*      CLOUDY    72  66  83 E5        30.26S
VIDALIA*       CLEAR     68  63  83 E5        30.29S
WAYCROSS*      CLEAR     68  66  94 CALM      30.27S
DOUGLAS*       MOCLDY    70  64  83 E5        30.28F
$$



USA.gov is the U.S. government's official web portal to all federal, state and local government web resources and services.